Rotterdam — PDGS — position and weather

sailwx.info

Track history (hours):
 
Tides and Currents Weather Stations Pressure Air Temp Water Temp Dewpoint Dewpoint Depression Visibility Wind Speed Wind Dir Waves Ship Positions

Rotterdam

Operator: Holland America Line

Last reported at 2017-Nov-19 23:46 UTC. Time now 2017-Nov-23 07:45 UTC.
Position N 27°36' W 082°45'.

Length 228 m; beam 29 m.

Type: Ship. MMSI: 24616700.

Date/timePositionNaut miles runAvg speedWind from/ knotsBaromVisibWave heightAir tempDewpointWater temp
2017-Nov-19 23:46N 27°36' W 082°45'1214.6
2017-Nov-19 22:58N 27°42' W 082°33'613.5
2017-Nov-19 22:31N 27°47' W 082°31'611.8
2017-Nov-19 22:00N 27°52' W 082°27'4 8.0
2017-Nov-19 21:30N 27°56' W 082°27'1 1.4
2017-Nov-19 20:58N 27°57' W 082°27'0 0.0
2017-Nov-19 20:28N 27°57' W 082°27'0 0.0
2017-Nov-19 19:58N 27°57' W 082°27'0 0.0
2017-Nov-19 19:28N 27°57' W 082°27'0 0.0
2017-Nov-19 18:58N 27°57' W 082°27'0 0.0
2017-Nov-19 18:28N 27°57' W 082°27'0 0.0
2017-Nov-19 17:58N 27°57' W 082°27'0 0.0
2017-Nov-19 17:28N 27°57' W 082°27'0 0.0
2017-Nov-19 16:58N 27°57' W 082°27'0 0.0
2017-Nov-19 16:28N 27°57' W 082°27'0 0.0
2017-Nov-19 15:58N 27°57' W 082°27'0 0.0
2017-Nov-19 15:28N 27°57' W 082°27'0 0.0
2017-Nov-19 14:58N 27°57' W 082°27'0 0.0
2017-Nov-19 14:28N 27°57' W 082°27'0 0.0
2017-Nov-19 13:58N 27°57' W 082°27'0 0.0
2017-Nov-19 13:28N 27°57' W 082°27'0 0.0
2017-Nov-19 12:58N 27°57' W 082°27'0 0.0
2017-Nov-19 12:28N 27°57' W 082°27'0 0.0
2017-Nov-19 12:00N 27°57' W 082°27'1 1.1
2017-Nov-19 11:31N 27°56' W 082°27'2 4.3
2017-Nov-19 11:01N 27°54' W 082°26'3 5.7
2017-Nov-19 10:31N 27°51' W 082°27'510.2
2017-Nov-19 10:01N 27°47' W 082°30'612.9
2017-Nov-19 09:31N 27°42' W 082°34'713.8
2017-Nov-19 08:59N 27°37' W 082°40'613.1
2017-Nov-19 08:30N 27°37' W 082°47'  
2017-Nov-11 11:09N 14°01' W 061°01'1 7.3
2017-Nov-11 11:00N 14°02' W 061°01'815.1
2017-Nov-11 10:31N 14°06' W 061°08'815.1
2017-Nov-11 10:00N 14°10' W 061°15'815.5
2017-Nov-11 09:31N 14°17' W 061°18'815.4
2017-Nov-11 09:00N 14°24' W 061°21'714.9
2017-Nov-11 08:31N 14°31' W 061°24'816.4
2017-Nov-11 08:01N 14°39' W 061°27'2415.3
2017-Nov-11 06:25N 15°01' W 061°37'715.8
2017-Nov-11 06:00N 15°07' W 061°40'1616.0
2017-Nov-11 04:58N 15°23' W 061°45'1015.9
2017-Nov-11 04:19N 15°32' W 061°49'2415.6
2017-Nov-11 02:46N 15°55' W 061°57'416.9
2017-Nov-11 02:30N 15°60' W 061°57'817.1
2017-Nov-11 02:01N 16°08' W 061°59'917.6
2017-Nov-11 01:31N 16°17' W 062°00'917.7
2017-Nov-11 01:01N 16°26' W 062°01'917.6
2017-Nov-11 00:31N 16°34' W 062°03'917.7
2017-Nov-11 00:01N 16°43' W 062°04'917.5
2017-Nov-10 23:31N 16°52' W 062°06'917.4
2017-Nov-10 23:01N 17°00' W 062°07'816.4
2017-Nov-10 22:31N 17°08' W 062°06'816.1
2017-Nov-10 22:01N 17°11' W 061°58'713.6
2017-Nov-10 21:30N 17°08' W 061°52'1 2.5
2017-Nov-10 21:00N 17°07' W 061°51'0 0.0
2017-Nov-10 20:30N 17°07' W 061°51'0 0.0
2017-Nov-10 20:00N 17°07' W 061°51'0 0.0
2017-Nov-10 19:30N 17°07' W 061°51'0 0.0
2017-Nov-10 18:57N 17°07' W 061°51'0 0.0
2017-Nov-10 18:28N 17°07' W 061°51'0 0.0
2017-Nov-10 17:55N 17°07' W 061°51'0 0.0
2017-Nov-10 17:28N 17°07' W 061°51'0 0.0
2017-Nov-10 16:58N 17°07' W 061°51'0 0.0
2017-Nov-10 16:28N 17°07' W 061°51'0 0.0
2017-Nov-10 15:58N 17°07' W 061°51'0 0.0
2017-Nov-10 15:28N 17°07' W 061°51'0 0.0
2017-Nov-10 14:58N 17°07' W 061°51'0 0.0
2017-Nov-10 14:28N 17°07' W 061°51'0 0.0
2017-Nov-10 13:58N 17°07' W 061°51'0 0.0
2017-Nov-10 13:19N 17°07' W 061°51'0 0.0
2017-Nov-10 12:58N 17°07' W 061°51'0 0.0
2017-Nov-10 12:28N 17°07' W 061°51'0 0.0
2017-Nov-10 11:58N 17°07' W 061°51'0 0.1
2017-Nov-10 11:31N 17°07' W 061°51'3 5.6
2017-Nov-10 11:01N 17°08' W 061°54'611.8
2017-Nov-10 10:30N 17°11' W 061°59'611.5
2017-Nov-10 10:01N 17°11' W 062°05'612.8
2017-Nov-10 09:31N 17°05' W 062°09'612.4
2017-Nov-10 09:00N 17°00' W 062°13'612.2
2017-Nov-10 08:30N 16°55' W 062°16'612.1
2017-Nov-10 08:01N 16°51' W 062°20'612.2
2017-Nov-10 07:31N 16°46' W 062°24'611.7
2017-Nov-10 07:01N 16°45' W 062°30'33 8.3
2017-Nov-10 03:05N 17°15' W 062°43'212.2
2017-Nov-10 02:57N 17°17' W 062°43'1 0.4
2017-Nov-10 01:08N 17°17' W 062°43'0 0.0
2017-Nov-10 00:31N 17°17' W 062°43'0 0.0
2017-Nov-10 00:13N 17°17' W 062°43'  
Track history (hours):
 
Tides and Currents Weather Stations Pressure Air Temp Water Temp Dewpoint Dewpoint Depression Visibility Wind Speed Wind Dir Waves Ship Positions

Rotterdam

Operator: Holland America Line

Last reported at 2017-Nov-19 23:46 UTC. Time now 2017-Nov-23 07:45 UTC.
Position N 27°36' W 082°45'.

Length 228 m; beam 29 m.

Type: Ship. MMSI: 24616700.

Date/timePositionNaut miles runAvg speedWind from/ knotsBaromVisibWave heightAir tempDewpointWater temp
2017-Nov-19 23:46N 27°36' W 082°45'1214.6
2017-Nov-19 22:58N 27°42' W 082°33'613.5
2017-Nov-19 22:31N 27°47' W 082°31'611.8
2017-Nov-19 22:00N 27°52' W 082°27'4 8.0
2017-Nov-19 21:30N 27°56' W 082°27'1 1.4
2017-Nov-19 20:58N 27°57' W 082°27'0 0.0
2017-Nov-19 20:28N 27°57' W 082°27'0 0.0
2017-Nov-19 19:58N 27°57' W 082°27'0 0.0
2017-Nov-19 19:28N 27°57' W 082°27'0 0.0
2017-Nov-19 18:58N 27°57' W 082°27'0 0.0
2017-Nov-19 18:28N 27°57' W 082°27'0 0.0
2017-Nov-19 17:58N 27°57' W 082°27'0 0.0
2017-Nov-19 17:28N 27°57' W 082°27'0 0.0
2017-Nov-19 16:58N 27°57' W 082°27'0 0.0
2017-Nov-19 16:28N 27°57' W 082°27'0 0.0
2017-Nov-19 15:58N 27°57' W 082°27'0 0.0
2017-Nov-19 15:28N 27°57' W 082°27'0 0.0
2017-Nov-19 14:58N 27°57' W 082°27'0 0.0
2017-Nov-19 14:28N 27°57' W 082°27'0 0.0
2017-Nov-19 13:58N 27°57' W 082°27'0 0.0
2017-Nov-19 13:28N 27°57' W 082°27'0 0.0
2017-Nov-19 12:58N 27°57' W 082°27'0 0.0
2017-Nov-19 12:28N 27°57' W 082°27'0 0.0
2017-Nov-19 12:00N 27°57' W 082°27'1 1.1
2017-Nov-19 11:31N 27°56' W 082°27'2 4.3
2017-Nov-19 11:01N 27°54' W 082°26'3 5.7
2017-Nov-19 10:31N 27°51' W 082°27'510.2
2017-Nov-19 10:01N 27°47' W 082°30'612.9
2017-Nov-19 09:31N 27°42' W 082°34'713.8
2017-Nov-19 08:59N 27°37' W 082°40'613.1
2017-Nov-19 08:30N 27°37' W 082°47'  
2017-Nov-11 11:09N 14°01' W 061°01'1 7.3
2017-Nov-11 11:00N 14°02' W 061°01'815.1
2017-Nov-11 10:31N 14°06' W 061°08'815.1
2017-Nov-11 10:00N 14°10' W 061°15'815.5
2017-Nov-11 09:31N 14°17' W 061°18'815.4
2017-Nov-11 09:00N 14°24' W 061°21'714.9
2017-Nov-11 08:31N 14°31' W 061°24'816.4
2017-Nov-11 08:01N 14°39' W 061°27'2415.3
2017-Nov-11 06:25N 15°01' W 061°37'715.8
2017-Nov-11 06:00N 15°07' W 061°40'1616.0
2017-Nov-11 04:58N 15°23' W 061°45'1015.9
2017-Nov-11 04:19N 15°32' W 061°49'2415.6
2017-Nov-11 02:46N 15°55' W 061°57'416.9
2017-Nov-11 02:30N 15°60' W 061°57'817.1
2017-Nov-11 02:01N 16°08' W 061°59'917.6
2017-Nov-11 01:31N 16°17' W 062°00'917.7
2017-Nov-11 01:01N 16°26' W 062°01'917.6
2017-Nov-11 00:31N 16°34' W 062°03'917.7
2017-Nov-11 00:01N 16°43' W 062°04'917.5
2017-Nov-10 23:31N 16°52' W 062°06'917.4
2017-Nov-10 23:01N 17°00' W 062°07'816.4
2017-Nov-10 22:31N 17°08' W 062°06'816.1
2017-Nov-10 22:01N 17°11' W 061°58'713.6
2017-Nov-10 21:30N 17°08' W 061°52'1 2.5
2017-Nov-10 21:00N 17°07' W 061°51'0 0.0
2017-Nov-10 20:30N 17°07' W 061°51'0 0.0
2017-Nov-10 20:00N 17°07' W 061°51'0 0.0
2017-Nov-10 19:30N 17°07' W 061°51'0 0.0
2017-Nov-10 18:57N 17°07' W 061°51'0 0.0
2017-Nov-10 18:28N 17°07' W 061°51'0 0.0
2017-Nov-10 17:55N 17°07' W 061°51'0 0.0
2017-Nov-10 17:28N 17°07' W 061°51'0 0.0
2017-Nov-10 16:58N 17°07' W 061°51'0 0.0
2017-Nov-10 16:28N 17°07' W 061°51'0 0.0
2017-Nov-10 15:58N 17°07' W 061°51'0 0.0
2017-Nov-10 15:28N 17°07' W 061°51'0 0.0
2017-Nov-10 14:58N 17°07' W 061°51'0 0.0
2017-Nov-10 14:28N 17°07' W 061°51'0 0.0
2017-Nov-10 13:58N 17°07' W 061°51'0 0.0
2017-Nov-10 13:19N 17°07' W 061°51'0 0.0
2017-Nov-10 12:58N 17°07' W 061°51'0 0.0
2017-Nov-10 12:28N 17°07' W 061°51'0 0.0
2017-Nov-10 11:58N 17°07' W 061°51'0 0.1
2017-Nov-10 11:31N 17°07' W 061°51'3 5.6
2017-Nov-10 11:01N 17°08' W 061°54'611.8
2017-Nov-10 10:30N 17°11' W 061°59'611.5
2017-Nov-10 10:01N 17°11' W 062°05'612.8
2017-Nov-10 09:31N 17°05' W 062°09'612.4
2017-Nov-10 09:00N 17°00' W 062°13'612.2
2017-Nov-10 08:30N 16°55' W 062°16'612.1
2017-Nov-10 08:01N 16°51' W 062°20'612.2
2017-Nov-10 07:31N 16°46' W 062°24'611.7
2017-Nov-10 07:01N 16°45' W 062°30'33 8.3
2017-Nov-10 03:05N 17°15' W 062°43'212.2
2017-Nov-10 02:57N 17°17' W 062°43'1 0.4
2017-Nov-10 01:08N 17°17' W 062°43'0 0.0
2017-Nov-10 00:31N 17°17' W 062°43'0 0.0
2017-Nov-10 00:13N 17°17' W 062°43'  

Dump ship's entire track history